Ana Sayfa
METAR-TAF:

METAR-TAF

Havaalanları :

Emerald, Avustralya

Enlem: 23-34-03S, Boylam: 148-10-45E, yükseklik: 190 m

Güncel hava durumu gözlemi

Rapor saat 21:00 UTC de 1 saat ve 3 dakika önce yapıldı.
Rüzgar kuzeydan 13 kt
Sıcaklık 25°C
Nem 61%
Basınç 1014 hPa
Görüş mesafesi 10 km veya daha fazla

METAR: YEML 162100Z AUTO 01013KT 9999 // NCD 25/17 Q1014

Saat: 08:03 (22:03 UTC)


TAF: eksik

4.000'den fazla havaalanı için hava durumu gözlemleri ve tahminleri (METAR ve TAF raporları).

Kullanılabilir istasyonlar harita üzerinde sarı ve kırmızı noktalarla gösterilir.

İstasyonun adını görmek için fareyi noktanın üzerinde gezdirin.

Sonrasında hava gözlem ve tahminlerini görmek için tıklayın.

Haritayı değiştirmek için: yaklaştırmak için siyah artı işaretli yeşil düğmeye ve uzaklaştırmak için de eksi işaretli düğmeye hızla tıklayın; bitişik haritalar için yeşil okları kullanın.


METAR-TAF: